Weather History for Ludington, MI

Change the Weather History Date:

Tuesday, February 5, 2013

  Actual Average Record
Temperature  
Mean Temperature 16 °F -  
Max Temperature 30 °F 29 °F 50 °F (2005)
Min Temperature 2 °F 14 °F -7 °F (1978)
Degree Days  
Heating Degree Days 49    
Moisture  
Dew Point 12 °F    
Average Humidity 74    
Maximum Humidity 86    
Minimum Humidity 55    
Precipitation  
Precipitation 0.00 in - - ()
Sea Level Pressure  
Sea Level Pressure 29.84 in    
Wind  
Wind Speed 5 mph (WNW)    
Max Wind Speed 21 mph    
Max Gust Speed 29 mph    
Visibility 9 miles    
Events Snow    
Averages and records for this station are not official NWS values.
T = Trace of Precipitation, MM = Missing Value Source: NWS Daily Summary

Daily Weather History Graph

Daily Weather History Graph

Search for Another Location

Airport:

Trip Planner

Search our weather history database for the weather conditions in past years. The results will help you decide how hot, cold, wet, or windy it might be!

Date:

Astronomy

Feb. 05, 2013 Rise Set
Actual Time 7:57 AM EST 6:02 PM EST
Civil Twilight 7:27 AM EST 6:32 PM EST
Nautical Twilight 6:53 AM EST 7:06 PM EST
Astronomical Twilight 6:19 AM EST 7:40 PM EST
Moon 3:42 AM EST (2/5) 1:14 PM EST (2/5)
Length of Visible Light 11h 04m
Length of Day
10h 04m
Waning Crescent, 27% of the Moon is Illuminated
Feb 5
Waning Crescent
Feb 10
New
Feb 17
First Quarter
Feb 25
Full
Mar 4
Last Quarter

Hourly Weather History & Observations

Time (EST) Temp. Windchill Dew Point Humidity Pressure Visibility Wind Dir Wind Speed Gust Speed Precip Events Conditions
12:15 AM 3.6 °F - -1.3 °F 80% 29.92 in 10.0 mi Calm Calm - N/A   Clear
12:35 AM 7.0 °F - 2.8 °F 83% 29.92 in 10.0 mi Calm Calm - N/A   Clear
12:54 AM 3.0 °F - -2.2 °F 79% 29.92 in 10.0 mi Calm Calm - N/A   Clear
1:15 AM 2.3 °F - -2.6 °F 80% 29.91 in 10.0 mi Calm Calm - N/A   Clear
1:35 AM 2.5 °F - -2.6 °F 79% 29.91 in 10.0 mi Calm Calm - N/A   Clear
1:54 AM 3.0 °F -4.4 °F -1.8 °F 80% 29.90 in 10.0 mi SE 3.5 mph - N/A   Clear
2:15 AM 3.6 °F - -1.3 °F 80% 29.90 in 10.0 mi Calm Calm - N/A   Clear
2:35 AM 3.7 °F -3.6 °F -1.3 °F 80% 29.90 in 10.0 mi ESE 3.5 mph - N/A   Clear
2:55 AM 3.9 °F - -0.9 °F 80% 29.90 in 10.0 mi Calm Calm - N/A   Clear
3:15 AM 3.7 °F - -1.3 °F 80% 29.89 in 10.0 mi Calm Calm - N/A   Clear
3:35 AM 3.7 °F -3.6 °F -1.3 °F 80% 29.88 in 10.0 mi ESE 3.5 mph - N/A   Clear
3:55 AM 4.5 °F - -0.4 °F 80% 29.87 in 10.0 mi Calm Calm - N/A   Clear
4:15 AM 4.6 °F -2.5 °F 0.1 °F 82% 29.86 in 10.0 mi ESE 3.5 mph - N/A   Clear
4:35 AM 4.5 °F - -0.2 °F 81% 29.87 in 10.0 mi Calm Calm - N/A   Clear
4:55 AM 4.5 °F - -0.2 °F 81% 29.86 in 10.0 mi Calm Calm - N/A   Clear
5:15 AM 5.0 °F - 0.5 °F 82% 29.86 in 10.0 mi Calm Calm - N/A   Clear
5:34 AM 4.1 °F - -0.6 °F 81% 29.85 in 10.0 mi Calm Calm - N/A   Clear
5:55 AM 7.0 °F - 2.7 °F 82% 29.85 in 10.0 mi Calm Calm - N/A   Mostly Cloudy
6:15 AM 10.0 °F - 5.7 °F 83% 29.85 in 10.0 mi Calm Calm - N/A   Overcast
6:35 AM 10.0 °F - 5.9 °F 83% 29.85 in 10.0 mi Calm Calm - N/A   Overcast
6:55 AM 10.0 °F - 5.9 °F 83% 29.84 in 10.0 mi Calm Calm - N/A   Overcast
7:14 AM 11.1 °F 1.7 °F 7.2 °F 84% 29.82 in 10.0 mi SSE 5.8 mph - N/A   Overcast
7:35 AM 12.7 °F 2.4 °F 7.7 °F 80% 29.82 in 10.0 mi SSE 6.9 mph - N/A   Overcast
7:55 AM 15.3 °F 5.4 °F 9.3 °F 77% 29.81 in 10.0 mi SE 6.9 mph - N/A   Overcast
8:14 AM 15.3 °F 6.6 °F 9.1 °F 77% 29.79 in 10.0 mi SSE 5.8 mph - N/A   Mostly Cloudy
8:35 AM 15.3 °F 5.4 °F 9.1 °F 77% 29.79 in 10.0 mi SSE 6.9 mph - N/A   Mostly Cloudy
8:55 AM 15.8 °F 6.1 °F 9.9 °F 77% 29.79 in 10.0 mi South 6.9 mph - N/A   Overcast
9:14 AM 17.6 °F 5.7 °F 11.8 °F 78% 29.79 in 10.0 mi South 10.4 mph - N/A   Overcast
9:35 AM 18.1 °F 7.1 °F 12.2 °F 78% 29.78 in 5.0 mi South 9.2 mph - N/A Snow Light Snow
9:55 AM 19.8 °F 11.9 °F 13.6 °F 77% 29.78 in 7.0 mi SSW 5.8 mph - N/A Snow Light Snow
10:14 AM 26.2 °F 13.4 °F 16.3 °F 66% 29.75 in 7.0 mi SW 17.3 mph 25.3 mph N/A Snow Light Snow
10:35 AM 27.9 °F 15.9 °F 16.5 °F 62% 29.74 in 10.0 mi SW 16.1 mph 25.3 mph N/A   Overcast
10:55 AM 27.9 °F 15.1 °F 20.1 °F 73% 29.74 in 5.0 mi SW 18.4 mph 25.3 mph N/A Snow Light Snow
11:15 AM 27.9 °F 14.4 °F 21.9 °F 78% 29.74 in 2.5 mi SW 20.7 mph 26.5 mph N/A Snow Light Snow
11:35 AM 28.2 °F 15.2 °F 23.4 °F 82% 29.74 in 1.0 mi SW 19.6 mph 27.6 mph N/A Snow Light Snow
11:55 AM 30.2 °F 17.8 °F 26.4 °F 86% 29.74 in 0.5 mi WSW 19.6 mph 27.6 mph N/A Snow Snow
12:15 PM 30.2 °F 17.4 °F 26.6 °F 86% 29.73 in 0.5 mi WSW 20.7 mph 28.8 mph N/A Snow Snow
12:35 PM 30.2 °F 18.5 °F 26.6 °F 86% 29.73 in 0.8 mi WSW 17.3 mph 26.5 mph N/A Snow Light Snow
12:54 PM 27.9 °F 17.3 °F 23.9 °F 85% 29.73 in 0.8 mi West 12.7 mph 23.0 mph N/A Snow Light Snow
1:15 PM 27.9 °F 17.3 °F 22.5 °F 80% 29.73 in 3.0 mi West 12.7 mph 21.9 mph N/A   Haze
1:35 PM 27.9 °F 19.1 °F 21.2 °F 76% 29.73 in 7.0 mi WNW 9.2 mph 20.7 mph N/A   Overcast
1:54 PM 27.9 °F 17.8 °F 21.2 °F 76% 29.73 in 7.0 mi West 11.5 mph - N/A   Overcast
2:15 PM 27.9 °F 18.4 °F 21.6 °F 77% 29.74 in 7.0 mi West 10.4 mph 16.1 mph N/A   Overcast
2:34 PM 27.9 °F 20.6 °F 21.2 °F 76% 29.74 in 7.0 mi WNW 6.9 mph - N/A   Overcast
2:55 PM 27.9 °F 19.8 °F 21.0 °F 75% 29.74 in 7.0 mi West 8.1 mph - N/A   Overcast
3:15 PM 27.9 °F 18.4 °F 21.0 °F 75% 29.75 in 7.0 mi WNW 10.4 mph - N/A   Overcast
3:34 PM 27.0 °F 19.5 °F 20.1 °F 75% 29.75 in 7.0 mi NW 6.9 mph 16.1 mph N/A   Overcast
3:55 PM 27.1 °F 18.9 °F 20.1 °F 75% 29.77 in 10.0 mi WNW 8.1 mph - N/A   Overcast
4:15 PM 27.5 °F 21.1 °F 20.7 °F 75% 29.77 in 10.0 mi NW 5.8 mph - N/A   Overcast
4:34 PM 26.6 °F 17.5 °F 19.8 °F 75% 29.78 in 10.0 mi NNW 9.2 mph - N/A   Overcast
4:55 PM 26.6 °F 19.1 °F 19.8 °F 75% 29.79 in 10.0 mi NW 6.9 mph - N/A   Overcast
5:15 PM 26.6 °F 18.2 °F 19.8 °F 75% 29.80 in 10.0 mi NNW 8.1 mph - N/A   Overcast
5:35 PM 26.2 °F 16.4 °F 19.2 °F 75% 29.81 in 10.0 mi NNW 10.4 mph - N/A   Overcast
5:55 PM 26.4 °F 16.6 °F 18.7 °F 73% 29.82 in 10.0 mi NNW 10.4 mph 16.1 mph N/A   Overcast
6:15 PM 25.3 °F 16.0 °F 17.1 °F 71% 29.83 in 10.0 mi NNW 9.2 mph 16.1 mph N/A   Overcast
6:35 PM 25.3 °F 16.0 °F 16.3 °F 69% 29.84 in 10.0 mi NNW 9.2 mph - N/A   Overcast
6:55 PM 25.3 °F 16.7 °F 15.1 °F 65% 29.85 in 10.0 mi North 8.1 mph 17.3 mph N/A   Overcast
7:15 PM 25.3 °F 16.7 °F 15.1 °F 65% 29.88 in 10.0 mi NNW 8.1 mph - N/A   Overcast
7:35 PM 25.3 °F 16.7 °F 15.3 °F 66% 29.89 in 10.0 mi NNW 8.1 mph - N/A   Overcast
7:55 PM 25.3 °F 16.7 °F 14.9 °F 65% 29.90 in 10.0 mi NNW 8.1 mph - N/A   Overcast
8:15 PM 25.3 °F 17.6 °F 14.0 °F 62% 29.90 in 10.0 mi NNW 6.9 mph - N/A   Overcast
8:35 PM 25.3 °F 17.6 °F 14.4 °F 63% 29.92 in 10.0 mi NNW 6.9 mph - N/A   Overcast
8:55 PM 25.3 °F 18.5 °F 14.5 °F 64% 29.92 in 10.0 mi NNW 5.8 mph - N/A   Overcast
9:15 PM 25.3 °F 16.7 °F 13.5 °F 61% 29.94 in 10.0 mi NNW 8.1 mph - N/A   Overcast
9:35 PM 25.5 °F 16.9 °F 13.8 °F 61% 29.95 in 10.0 mi NNW 8.1 mph - N/A   Overcast
9:54 PM 25.7 °F 17.1 °F 13.5 °F 60% 29.96 in 10.0 mi NNW 8.1 mph 17.3 mph N/A   Overcast
10:15 PM 25.3 °F 17.6 °F 13.1 °F 60% 29.96 in 10.0 mi NNW 6.9 mph - N/A   Overcast
10:35 PM 25.5 °F 15.5 °F 12.0 °F 57% 29.96 in 10.0 mi North 10.4 mph - N/A   Overcast
10:54 PM 25.5 °F 21.3 °F 11.7 °F 56% 29.98 in 10.0 mi NW 3.5 mph - N/A   Overcast
11:15 PM 25.3 °F 17.6 °F 11.3 °F 55% 29.99 in 10.0 mi NNW 6.9 mph - N/A   Overcast
11:35 PM 26.4 °F 18.9 °F 12.4 °F 55% 29.99 in 10.0 mi NW 6.9 mph - N/A   Overcast
11:55 PM 25.9 °F 19.2 °F 11.7 °F 55% 30.00 in 10.0 mi NNW 5.8 mph - N/A   Overcast